ITY1463 LIRF-LIPZ

Flight info

Callsign ITY1463
Flight time 0h 41m
Altitude 34000
Route SOVAN DCT AMTEL DCT NUKNI DCT BIKTU DCT PELEG DCT SUKOM Q125 NIMUM Z43 OTGIG
Aircraft A20N/M-SDE2E3FGHIRWXY/LB1

Departure

Time 2026-05-06 14:44
Airport Rome–Fiumicino Leonardo da Vinci International Airport (LIRF)

Arrival

Time 2026-05-06 15:25
Airport Venice Marco Polo Airport (LIPZ)
Time Latitude Longitude Altitude Speed Heading
2026-05-06 14:22 41.79902 12.26619 15 ft 0 kts 250°
2026-05-06 14:38 41.79899 12.26607 15 ft 5 kts 250°
2026-05-06 14:38 41.79907 12.26555 15 ft 6 kts 322°
2026-05-06 14:38 41.79956 12.26524 15 ft 8 kts 337°
2026-05-06 14:39 41.80020 12.26494 16 ft 10 kts 341°
2026-05-06 14:39 41.80096 12.26457 16 ft 12 kts 340°
2026-05-06 14:39 41.80122 12.26365 16 ft 12 kts 251°
2026-05-06 14:39 41.80130 12.26247 16 ft 13 kts 294°
2026-05-06 14:40 41.80171 12.26127 16 ft 14 kts 294°
2026-05-06 14:40 41.80248 12.26058 16 ft 15 kts 18°
2026-05-06 14:40 41.80349 12.26121 16 ft 16 kts 25°
2026-05-06 14:40 41.80462 12.26179 16 ft 17 kts 12°
2026-05-06 14:41 41.80542 12.26299 16 ft 18 kts 69°
2026-05-06 14:41 41.80588 12.26466 15 ft 19 kts 70°
2026-05-06 14:41 41.80637 12.26642 15 ft 20 kts 69°
2026-05-06 14:41 41.80687 12.26826 14 ft 21 kts 71°
2026-05-06 14:42 41.80740 12.27014 14 ft 22 kts 69°
2026-05-06 14:42 41.80794 12.27135 13 ft 13 kts 15°
2026-05-06 14:42 41.80887 12.27106 13 ft 14 kts 339°
2026-05-06 14:42 41.80981 12.27055 13 ft 9 kts 321°
2026-05-06 14:43 41.80969 12.26969 14 ft 10 kts 249°
2026-05-06 14:43 41.80917 12.26784 14 ft 50 kts 250°
2026-05-06 14:43 41.80698 12.25994 16 ft 125 kts 249°
2026-05-06 14:43 41.80341 12.24678 224 ft 164 kts 248°
2026-05-06 14:44 41.79996 12.23225 909 ft 167 kts 249°
2026-05-06 14:44 41.79588 12.21731 1475 ft 181 kts 243°
2026-05-06 14:44 41.79136 12.20077 2013 ft 201 kts 259°
2026-05-06 14:45 41.80563 12.16693 3366 ft 233 kts 311°
2026-05-06 14:45 41.81642 12.15043 4278 ft 235 kts 306°
2026-05-06 14:45 41.82643 12.13331 5202 ft 236 kts 304°
2026-05-06 14:45 41.83637 12.11608 6116 ft 238 kts 306°
2026-05-06 14:46 41.84919 12.10175 6993 ft 246 kts 332°
2026-05-06 14:46 41.86585 12.09413 7654 ft 261 kts 341°
2026-05-06 14:46 41.88412 12.08772 8209 ft 280 kts 342°
2026-05-06 14:46 41.90353 12.08102 8839 ft 294 kts 342°
2026-05-06 14:47 41.92339 12.07398 9725 ft 297 kts 341°
2026-05-06 14:47 41.94358 12.06688 10597 ft 302 kts 343°
2026-05-06 14:47 41.96476 12.06141 11139 ft 319 kts 348°
2026-05-06 14:47 41.98726 12.05827 11870 ft 327 kts 352°
2026-05-06 14:48 42.01037 12.05603 12734 ft 330 kts 353°
2026-05-06 14:48 42.03317 12.05394 13574 ft 333 kts 353°
2026-05-06 14:48 42.05663 12.05175 14362 ft 337 kts 353°
2026-05-06 14:48 42.06922 12.05054 14753 ft 339 kts 353°
2026-05-06 14:49 42.09323 12.04822 15466 ft 344 kts 352°
2026-05-06 14:49 42.11724 12.04588 16158 ft 350 kts 352°
2026-05-06 14:49 42.14206 12.04346 16853 ft 354 kts 352°
2026-05-06 14:49 42.16682 12.04104 17516 ft 359 kts 352°
2026-05-06 14:50 42.19214 12.03738 18184 ft 362 kts 348°
2026-05-06 14:50 42.20586 12.03457 18543 ft 364 kts 347°
2026-05-06 14:50 42.23129 12.02894 19195 ft 368 kts 346°
2026-05-06 14:50 42.25663 12.02315 19838 ft 372 kts 346°
2026-05-06 14:51 42.28228 12.01727 20468 ft 376 kts 346°
2026-05-06 14:51 42.30827 12.01137 21094 ft 379 kts 346°
2026-05-06 14:51 42.33456 12.00544 21722 ft 383 kts 346°
2026-05-06 14:51 42.36121 11.99941 22330 ft 387 kts 345°
2026-05-06 14:52 42.38788 11.99340 22931 ft 391 kts 345°
2026-05-06 14:52 42.41494 11.98732 23497 ft 395 kts 345°
2026-05-06 14:52 42.44215 11.98119 24072 ft 399 kts 345°
2026-05-06 14:52 42.46971 11.97498 24640 ft 402 kts 345°
2026-05-06 14:53 42.49771 11.96868 25187 ft 406 kts 344°
2026-05-06 14:53 42.52581 11.96232 25731 ft 410 kts 344°
2026-05-06 14:53 42.55423 11.95587 26248 ft 413 kts 344°
2026-05-06 14:53 42.58258 11.94943 26767 ft 416 kts 344°
2026-05-06 14:54 42.61149 11.94288 27301 ft 419 kts 344°
2026-05-06 14:54 42.64061 11.93625 27757 ft 423 kts 343°
2026-05-06 14:54 42.66967 11.92965 28230 ft 425 kts 343°
2026-05-06 14:54 42.69930 11.92289 28683 ft 428 kts 343°
2026-05-06 14:55 42.72868 11.91617 29129 ft 431 kts 343°
2026-05-06 14:55 42.75859 11.90936 29567 ft 433 kts 343°
2026-05-06 14:55 42.78855 11.90200 29992 ft 432 kts 340°
2026-05-06 14:55 42.81807 11.89216 30407 ft 432 kts 339°
2026-05-06 14:56 42.84793 11.88420 30743 ft 437 kts 341°
2026-05-06 14:56 42.87763 11.87474 31052 ft 438 kts 338°
2026-05-06 14:56 42.90743 11.86427 31373 ft 440 kts 338°
2026-05-06 14:56 42.93747 11.85367 31718 ft 442 kts 338°
2026-05-06 14:57 42.96744 11.84323 32051 ft 444 kts 338°
2026-05-06 14:57 42.99802 11.83271 32420 ft 446 kts 339°
2026-05-06 14:57 43.02804 11.82250 32817 ft 445 kts 339°
2026-05-06 14:57 43.05853 11.81219 33259 ft 444 kts 339°
2026-05-06 14:58 43.08866 11.80198 33634 ft 444 kts 338°
2026-05-06 14:58 43.11906 11.79169 33962 ft 445 kts 338°
2026-05-06 14:58 43.14948 11.78139 34304 ft 445 kts 338°
2026-05-06 14:58 43.17976 11.77111 34588 ft 446 kts 339°
2026-05-06 14:59 43.20994 11.76086 34829 ft 446 kts 339°
2026-05-06 14:59 43.24021 11.75055 35064 ft 447 kts 339°
2026-05-06 14:59 43.27050 11.74025 35296 ft 447 kts 339°
2026-05-06 14:59 43.30122 11.72981 35513 ft 448 kts 339°
2026-05-06 15:00 43.33174 11.71941 35733 ft 448 kts 339°
2026-05-06 15:00 43.34861 11.71367 35849 ft 449 kts 339°
2026-05-06 15:00 43.37891 11.70332 35902 ft 450 kts 339°
2026-05-06 15:01 43.44003 11.68247 35907 ft 449 kts 340°
2026-05-06 15:01 43.50148 11.66145 35908 ft 449 kts 339°
2026-05-06 15:02 43.56262 11.64047 35910 ft 449 kts 339°
2026-05-06 15:02 43.62360 11.61947 35909 ft 449 kts 340°
2026-05-06 15:03 43.68464 11.59842 35906 ft 448 kts 340°
2026-05-06 15:03 43.74696 11.58466 35904 ft 460 kts 355°
2026-05-06 15:04 43.81099 11.59715 35910 ft 462 kts
2026-05-06 15:04 43.87368 11.61806 35843 ft 455 kts
2026-05-06 15:04 43.90443 11.62823 35476 ft 452 kts
2026-05-06 15:05 43.93528 11.63824 34932 ft 452 kts
2026-05-06 15:05 43.96602 11.64809 34443 ft 450 kts
2026-05-06 15:05 43.99670 11.65787 33867 ft 448 kts
2026-05-06 15:05 44.02710 11.66755 33240 ft 448 kts
2026-05-06 15:06 44.05758 11.67725 32507 ft 451 kts
2026-05-06 15:06 44.08855 11.68711 31740 ft 454 kts
2026-05-06 15:06 44.11953 11.69698 31011 ft 455 kts
2026-05-06 15:06 44.15071 11.70696 30276 ft 457 kts
2026-05-06 15:07 44.18137 11.71677 29720 ft 453 kts
2026-05-06 15:07 44.21244 11.72605 29186 ft 447 kts
2026-05-06 15:07 44.24332 11.73007 28625 ft 437 kts 354°
2026-05-06 15:07 44.27359 11.72692 28131 ft 427 kts 347°
2026-05-06 15:08 44.30309 11.72128 27589 ft 423 kts 345°
2026-05-06 15:08 44.33231 11.71514 27045 ft 421 kts 345°
2026-05-06 15:08 44.36143 11.70900 26526 ft 418 kts 345°
2026-05-06 15:08 44.39003 11.70303 25784 ft 422 kts 346°
2026-05-06 15:09 44.41956 11.69692 24981 ft 426 kts 346°
2026-05-06 15:09 44.44876 11.69100 24486 ft 422 kts 347°
2026-05-06 15:09 44.47818 11.68506 24004 ft 417 kts 347°
2026-05-06 15:09 44.50672 11.67931 23489 ft 414 kts 347°
2026-05-06 15:10 44.53572 11.67449 22948 ft 415 kts 355°
2026-05-06 15:10 44.56434 11.68121 22348 ft 422 kts 20°
2026-05-06 15:10 44.58999 11.70185 21895 ft 420 kts 34°
2026-05-06 15:10 44.61391 11.72552 21416 ft 416 kts 35°
2026-05-06 15:11 44.63752 11.74896 20924 ft 413 kts 34°
2026-05-06 15:11 44.66115 11.77201 20439 ft 410 kts 33°
2026-05-06 15:11 44.68483 11.79473 19934 ft 407 kts 33°
2026-05-06 15:11 44.70837 11.81714 19454 ft 404 kts 33°
2026-05-06 15:12 44.73174 11.83931 18976 ft 401 kts 33°
2026-05-06 15:12 44.75494 11.86133 18473 ft 399 kts 33°
2026-05-06 15:12 44.77793 11.88316 18009 ft 395 kts 33°
2026-05-06 15:12 44.80065 11.90476 17656 ft 389 kts 33°
2026-05-06 15:13 44.82303 11.92604 17390 ft 381 kts 33°
2026-05-06 15:13 44.84507 11.94702 16985 ft 378 kts 33°
2026-05-06 15:13 44.86682 11.96777 16541 ft 376 kts 33°
2026-05-06 15:13 44.88857 11.98851 16121 ft 373 kts 33°
2026-05-06 15:14 44.91025 12.00930 15667 ft 371 kts 35°
2026-05-06 15:14 44.93076 12.03161 15262 ft 368 kts 40°
2026-05-06 15:14 44.94996 12.05515 14852 ft 366 kts 42°
2026-05-06 15:14 44.96885 12.07905 14451 ft 364 kts 42°
2026-05-06 15:15 44.98777 12.10271 14027 ft 361 kts 38°
2026-05-06 15:15 45.00990 12.11936 13559 ft 357 kts 11°
2026-05-06 15:15 45.03405 12.12162 13176 ft 347 kts 351°
2026-05-06 15:15 45.05766 12.11531 12766 ft 337 kts 333°
2026-05-06 15:16 45.07626 12.09710 12316 ft 322 kts 308°
2026-05-06 15:16 45.09117 12.07332 11923 ft 317 kts 305°
2026-05-06 15:16 45.10569 12.04964 11498 ft 316 kts 306°
2026-05-06 15:16 45.12049 12.02638 11076 ft 315 kts 308°
2026-05-06 15:17 45.13522 12.00389 10683 ft 312 kts 308°
2026-05-06 15:17 45.15008 11.98164 10471 ft 300 kts 309°
2026-05-06 15:17 45.16449 11.96074 10235 ft 289 kts 315°
2026-05-06 15:17 45.18202 11.94779 9923 ft 286 kts 347°
2026-05-06 15:18 45.20155 11.95003 9495 ft 283 kts 22°
2026-05-06 15:18 45.21706 11.96660 8928 ft 278 kts 54°
2026-05-06 15:18 45.22787 11.98847 8557 ft 268 kts 56°
2026-05-06 15:18 45.23906 12.00959 7989 ft 266 kts 50°
2026-05-06 15:19 45.25164 12.02801 7702 ft 254 kts 41°
2026-05-06 15:19 45.26483 12.04404 7397 ft 243 kts 39°
2026-05-06 15:19 45.27777 12.05943 6954 ft 241 kts 40°
2026-05-06 15:19 45.29035 12.07478 6520 ft 238 kts 41°
2026-05-06 15:20 45.30268 12.09027 6063 ft 236 kts 41°
2026-05-06 15:20 45.31490 12.10593 5566 ft 236 kts 42°
2026-05-06 15:20 45.32697 12.12157 5074 ft 235 kts 42°
2026-05-06 15:20 45.33899 12.13721 4578 ft 235 kts 42°
2026-05-06 15:21 45.35107 12.15293 4081 ft 235 kts 42°
2026-05-06 15:21 45.36319 12.16868 3582 ft 234 kts 42°
2026-05-06 15:21 45.37517 12.18422 3103 ft 233 kts 42°
2026-05-06 15:21 45.38708 12.19963 2770 ft 224 kts 42°
2026-05-06 15:22 45.39837 12.21423 2474 ft 215 kts 42°
2026-05-06 15:22 45.40924 12.22825 2195 ft 209 kts 43°
2026-05-06 15:22 45.42004 12.24219 1965 ft 204 kts 43°
2026-05-06 15:22 45.43029 12.25541 1723 ft 190 kts 43°
2026-05-06 15:23 45.43977 12.26762 1464 ft 176 kts 43°
2026-05-06 15:23 45.44854 12.27891 1217 ft 164 kts 44°
2026-05-06 15:23 45.45677 12.28952 981 ft 151 kts 44°
2026-05-06 15:23 45.46423 12.29913 778 ft 140 kts 44°
2026-05-06 15:24 45.47150 12.30848 616 ft 140 kts 43°
2026-05-06 15:24 45.47878 12.31774 441 ft 138 kts 44°
2026-05-06 15:24 45.48579 12.32682 261 ft 136 kts 44°
2026-05-06 15:24 45.49275 12.33589 79 ft 134 kts 44°
2026-05-06 15:25 45.49923 12.34428 13 ft 97 kts 42°
2026-05-06 15:25 45.50274 12.34881 13 ft 44 kts 42°
2026-05-06 15:25 45.50431 12.35038 12 ft 23 kts 13°
2026-05-06 15:25 45.50523 12.35064 12 ft 4 kts 11°
2026-05-06 15:26 45.50551 12.35071 12 ft 3 kts
2026-05-06 15:26 45.50577 12.35070 12 ft 4 kts 347°
2026-05-06 15:26 45.50612 12.35007 12 ft 11 kts 276°
2026-05-06 15:26 45.50610 12.34891 12 ft 12 kts 267°
2026-05-06 15:27 45.50606 12.34791 12 ft 0 kts 267°
2026-05-06 15:27 45.50606 12.34790 12 ft 0 kts 267°
2026-05-06 15:27 45.50605 12.34752 12 ft 6 kts 268°
2026-05-06 15:27 45.50603 12.34670 12 ft 10 kts 267°
2026-05-06 15:28 45.50602 12.34631 12 ft 9 kts 266°
2026-05-06 15:28 45.50600 12.34570 12 ft 0 kts 267°
2026-05-06 15:32 45.50597 12.34503 12 ft 7 kts 267°
2026-05-06 15:32 45.50588 12.34423 12 ft 8 kts 238°
2026-05-06 15:32 45.50542 12.34357 12 ft 9 kts 213°
2026-05-06 15:32 45.50494 12.34340 12 ft 3 kts 221°
2026-05-06 15:33 45.50491 12.34298 12 ft 5 kts 270°
2026-05-06 15:33 45.50490 12.34242 12 ft 5 kts 267°
2026-05-06 15:33 45.50489 12.34210 12 ft 2 kts 267°
2026-05-06 15:33 45.50489 12.34206 12 ft 0 kts 267°